Regional Weather Roundup
Issued by NWS

Home | Current Version | Previous Version | Text Only | Print | Product List | Glossary On
Versions: 1 2 3 4 5 6 7 8 9 10 11 12 13 14 15 16 17 18 19 20 21 22 23 24 25 26 27 28 29 30 31 32 33 34 35 36 37 38 39 40 41 42 43 44 45 46 47 48 49 50
000
ASUS44 KMEG 210210
RWRTN
TENNESSEE HOURLY STATE WEATHER ROUNDUP
NATIONAL WEATHER SERVICE MEMPHIS TN
800 PM CST SAT DEC 20 2014

TNZ002-004-019-021-049-052-054-088>092-210300-
WEST TENNESSEE

CITY           SKY/WX    TMP DP  RH WIND       PRES   REMARKS
MEMPHIS INTL   PTCLDY    43  33  68 NE7       30.24S
NWS MEMPHIS      N/A     41 N/A N/A MISG        N/A
JACKSON        CLEAR     36  29  75 CALM      30.26R
DYERSBURG      CLEAR     36  21  55 CALM      30.28S
UNION CITY     CLEAR     30  28  93 CALM      30.25S
PARIS          CLEAR     27  23  86 E3        30.25F
HUNTINGDON     CLEAR     29  25  85 CALM      30.26S
LEXINGTON      CLEAR     34  28  80 CALM      30.24S
SAVANNAH       CLEAR     37  28  70 N3        30.25R
$$

TNZ008-025-027-028-033-062-065-066-210300-
NORTH MIDDLE TENNESSEE

CITY           SKY/WX    TMP DP  RH WIND       PRES   REMARKS
NASHVILLE      MOCLDY    37  28  70 CALM      30.27R
CLARKSVILLE    CLEAR     30  27  88 CALM      30.27S
SMYRNA         CLEAR     33  28  82 CALM      30.28R
COOKEVILLE     CLEAR     28  27  93 NE3       30.22S
CROSSVILLE     CLEAR     36  26  67 NE5       30.21S WCI  32
$$

TNZ061-075-076-078-094-096-097-210300-
SOUTH MIDDLE TENNESSEE

CITY           SKY/WX    TMP DP  RH WIND       PRES   REMARKS
FAYETTEVILLE   CLEAR     36  27  69 MISG      30.22R
TULLAHOMA      CLEAR     34  27  75 CALM      30.22S
WINCHESTER     CLEAR     30  28  93 CALM      30.23R
MCMINNVILLE    CLEAR     36  28  75 CALM      30.23R
COLUMBIA       CLEAR     34  34 100 CALM      30.23R
SHELBYVILLE    CLEAR     36  30  80 N7        30.25R WCI  30
$$

TNZ017-018-042-046-047-210300-
NORTHEAST TENNESSEE

CITY           SKY/WX    TMP DP  RH WIND       PRES   REMARKS
TRI CITIES     CLOUDY    40  37  89 SW6       30.23R
ELIZABETHTON   LGT RAIN  37  37 100 W5        30.22R FOG     WCI  34
$$

TNZ012-013-036-069-073-074-210300-
CENTRAL EAST TENNESSEE

CITY           SKY/WX    TMP DP  RH WIND       PRES   REMARKS
KNOXVILLE      CLOUDY    42  35  76 N3        30.23S
OAK RIDGE      CLOUDY    38  33  82 CALM      30.26R
GATLINBURG     CLOUDY    39  37  93 CALM      30.24S
MORRISTOWN     CLOUDY    39  37  93 CALM      30.24R
$$

TNZ083-085-099-210300-
SOUTHEAST TENNESSEE

CITY           SKY/WX    TMP DP  RH WIND       PRES   REMARKS
CHATTANOOGA    PTCLDY    36  32  85 CALM      30.24R
$$

SKY/WX REPORTED AS FAIR MEANS FEW OR NO CLOUDS BELOW
12 THOUSAND FEET.



USA.gov is the U.S. government's official web portal to all federal, state and local government web resources and services.